Regional Weather Roundup
Issued by NWS

Home | Current Version | Previous Version | Graphics & Text | Print | Product List | Glossary Off
Versions: 1 2 3 4 5 6 7 8 9 10 11 12 13 14 15 16 17 18 19 20 21 22 23 24 25 26 27 28 29 30 31 32 33 34 35 36 37 38 39 40 41 42 43 44 45 46 47 48 49 50

000
ASUS43 KMPX 250101
RWRMN
WEATHER ROUNDUP FOR MINNESOTA
NATIONAL WEATHER SERVICE TWIN CITIES/CHANHASSEN MN
700 PM CST FRI NOV 24 2017


NOTE: "FAIR" INDICATES FEW OR NO CLOUDS BELOW 12,000 FEET WITH NO
SIGNIFICANT WEATHER AND/OR OBSTRUCTIONS TO VISIBILITY. N/A MEANS
CURRENT SKY AND/OR WEATHER CONDITIONS ARE NOT AVAILABLE.

MNZ060>063-068>070-250200-
   Twin Cities Metro

CITY           SKY/WX    TMP DP  RH WIND       PRES   REMARKS
TWIN CITIES    CLEAR     46  38  73 NW16G28   29.62R
ST PAUL        CLEAR     46  38  73 W17       29.62R
CRYSTAL        CLEAR     44  34  67 W13       29.61R
BLAINE         CLEAR     46  37  71 W16G22    29.60R
LAKEVILLE      CLEAR     43  37  81 W13       29.62R
EDEN PRAIRIE   CLEAR     46  37  71 NW17G25   29.62R
SOUTH ST PAUL  CLEAR     47  37  67 NW15      29.61R
LAKE ELMO      FAIR      45  37  76 W8        29.61R
$$
MNZ001>005-007-008-013>017-022>024-027-028-250200-
   Northwest Minnesota

CITY           SKY/WX    TMP DP  RH WIND       PRES   REMARKS
BEMIDJI        CLOUDY    37  32  84 W12       29.59R
HALLOCK        CLOUDY    36  30  80 N17       29.64R
ROSEAU         CLOUDY    37  32  81 W12       29.57R
WARROAD        CLOUDY    36  30  80 NW15      29.57R
CROOKSTON      CLEAR     36  32  87 NW12      29.67R
FOSSTON        MOCLDY    36  32  87 NW8       29.63R
DETROIT LAKES  PTCLDY    41  34  75 NW17G24   29.65R
MOORHEAD       CLEAR     43  34  70 W14       29.68R
PARK RAPIDS    PTCLDY    36  32  85 W10       29.60R
MAHNOMEN       MOCLDY    36  33  87 W13       29.63R
$$
MNZ006-009>011-018-025>026-250200-
   North Central Minnesota

CITY           SKY/WX    TMP DP  RH WIND       PRES   REMARKS
BAUDETTE       CLOUDY    38  30  73 W16G22    29.51R
FLAG ISLAND    CLOUDY    32  25  74 NW24      29.55R WCI  19
INTL FALLS     CLOUDY    37  28  70 W9        29.49R
WASKISH        CLOUDY    36  32  87 W8        29.55R
BIG FORK       CLOUDY    39  28  65 NW6G22    29.53R
LONGVILLE      CLEAR     37  32  81 W10G21    29.58R
GRAND RAPIDS   CLOUDY    38  33  82 W13G21    29.56R
CRANE LAKE     CLOUDY    37  28  70 NW3       29.49R
ORR            CLOUDY    37  27  65 NW17G26   29.47R
COOK           CLOUDY    37  30  75 NW10      29.49R
WALKER         FAIR      37  32  83 W10       29.58R
$$
MNZ012-019>021-037-250200-
   Northeast Minnesota

CITY           SKY/WX    TMP DP  RH WIND       PRES   REMARKS
DULUTH         CLOUDY    39  34  82 NW17G23   29.49R
ELY            CLOUDY    37  28  70 NW12G17   29.46R
HIBBING        CLOUDY    38  33  82 W10       29.50R
EVELETH        CLOUDY    37  32  82 W7        29.50R
DULUTH HARBOR  PTCLDY    43  37  81 W15G22    29.52R
TWO HARBORS    PTCLDY    41  36  81 W5        29.46R
SILVER BAY     CLEAR     39  36  87 W5        29.43R
GRAND MARAIS     N/A     41  31  67 VRB6      29.42R
G MARAIS ARPRT CLOUDY    34  27  75 W9G18     29.38R WCI  26
$$
MNZ029>031-032-039>041-046>048-054>057-064-250200-
   West Central Minnesota

CITY           SKY/WX    TMP DP  RH WIND       PRES   REMARKS
FERGUS FALLS   PTCLDY    37  32  81 NW10      29.70R
WHEATON        CLEAR     39  32  75 W10       29.73R
MORRIS         CLEAR     39  32  75 W9        29.70R
ALEXANDRIA     CLEAR     41  32  70 NW12      29.68R
ELBOW LAKE     FAIR      35  32  87 NW8       29.69R WCI  29
WADENA         CLEAR     37  32  81 W8        29.63R
GLENWOOD       CLEAR     39  34  81 W12       29.69R
APPLETON       CLEAR     39  30  70 W6        29.72R
BENSON         CLEAR     39  32  75 NW10      29.72R
ORTONVILLE     CLEAR     43  34  70 W7        29.73R
MADISON        CLEAR     45  36  70 W9        29.74R
WILLMAR        FAIR      43  36  75 W12       29.71R
$$
MNZ033>034-036-042>043-049>051-058-059-250200-
   Central Minnesota

CITY           SKY/WX    TMP DP  RH WIND       PRES   REMARKS
ST CLOUD       CLEAR     42  35  76 W13       29.63R
SAUK CENTRE    FAIR      37  33  85 W8        29.66R
PAYNESVILLE    CLEAR     41  36  83 W13       29.68R
AITKIN         CLEAR     37  32  81 W9        29.56R
PINE RIVER     CLEAR     37  30  75 W7        29.64R
BRAINERD       CLEAR     41  32  70 W14G22    29.60R
STAPLES        CLEAR     37  32  81 W9        29.63R
LONG PRAIRIE   FAIR      37  32  81 W8        29.66R
LITTLE FALLS   CLEAR     39  30  70 W10       29.64R
LITCHFIELD     CLEAR     45  37  76 NW12      29.67R
BUFFALO        CLEAR     43  36  76 W12       29.65R
MAPLE LAKE     CLEAR     44  37  78 W13G20    29.65R
HUTCHINSON     CLEAR     43  38  82 W10       29.68R
$$
MNZ037-044-045-052-053-250200-
   East Central Minnesota

CITY           SKY/WX    TMP DP  RH WIND       PRES   REMARKS
PRINCETON      CLEAR     43  36  75 W12       29.61R
MORA           CLEAR     41  34  75 NW10      29.58R
CAMBRIDGE      CLEAR     45  34  65 W12       29.60R
RUSH CITY      CLEAR     39  35  86 W7        29.57R
MOOSE LAKE     PTCLDY    37  36  93 W5        29.53R
HINCKLEY       FAIR      41  36  81 W8        29.56R
CLOQUET        CLOUDY    39  36  87 W12       29.52R
MCGREGOR       CLEAR     37  34  87 NW9G16    29.57R
$$
MNZ071>073-080-081-089-090-097-098-250200-
   Southwest Minnesota

CITY           SKY/WX    TMP DP  RH WIND       PRES   REMARKS
MONTEVIDEO     CLEAR     43  34  70 N10G16    29.72R
GRANITE FALLS  CLEAR     44  35  71 W14       29.74R
CANBY          CLEAR     44  35  69 NW13G18   29.75R
MARSHALL       CLEAR     44  34  67 NW16      29.74R
REDWOOD FALLS  CLEAR     45  33  63 NW13      29.70R
OLIVIA         CLEAR     43  34  70 NW13      29.69R
PIPESTONE      CLEAR     43  32  65 NW10      29.76R
WINDOM         CLEAR     43  28  56 W13       29.72R
WORTHINGTON    CLEAR     44  34  67 NW14      29.75R
JACKSON        CLEAR     45  34  65 NW15      29.72R
SLAYTON        PTCLDY    43  34  71 NW15      29.73S
$$
MNZ065>067-074>077-082>085-091>093-250200-
   South Central Minnesota

CITY           SKY/WX    TMP DP  RH WIND       PRES   REMARKS
MANKATO        CLEAR     45  38  76 NW15      29.67R
NEW ULM        CLEAR     46  36  66 NW17G29   29.69R
ST JAMES       CLEAR     45  36  70 W16       29.71R
FAIRMONT       CLEAR     46  37  71 NW17      29.70R
GLENCOE        CLEAR     45  38  77 W16G22    29.65R
FARIBAULT      CLEAR     45  37  76 W10G21    29.65R
OWATONNA       CLEAR     45  37  76 W14       29.65R
WASECA         CLEAR     43  36  75 NW16G24   29.67R
ALBERT LEA     CLEAR     46  37  71 NW13G21   29.65R
$$
MNZ078>079-086>088-094>096-250200-
   Southeast Minnesota

CITY           SKY/WX    TMP DP  RH WIND       PRES   REMARKS
ROCHESTER      CLEAR     45  41  86 NW20G26   29.61R
RED WING       CLEAR     46  39  76 NW8G16    29.58R
STANTON        CLEAR     45  39  78 W16G22    29.61R
DODGE CENTER   CLEAR     45  37  76 W10       29.62R
WINONA         PTCLDY    48  43  81 NW13      29.56R
AUSTIN         CLEAR     45  39  81 NW14G20   29.63R
PRESTON        PTCLDY    47  41  81 NW22      29.59R
$$
ABBREVIATIONS USED IN REMARKS
   TC - TEMPERATURES IN CELSIUS
  WCI - WIND CHILL INDEX
   HX - HEAT INDEX
  VSB - VISIBILITY
$$



USA.gov is the U.S. government's official web portal to all federal, state and local government web resources and services.